"TOA5","AWS1","CR1000","7964","CR1000.Std.14","CPU:AWS1_114.CR1","64363","TBL110"
"TIMESTAMP","RECORD","Wind_spd_WVc(1)","Wind_spd_WVc(2)","Air_Temp_Avg","Humidity_Avg","SW_upper_Wm2_Avg","Rain_Tot","Press_Avg","Issui_Tot","Depth_cm","SR50A_Raw","Quality","Ground_Temp_Avg(1)","Ground_Temp_Avg(2)","SW_lower_Wm2_Avg","Albedo_Avg","SWC_per(1)","SWC_per(2)","Period(1)","Period(2)"
"TS","RN","","","","","","","","","","","","","","","","","","",""
"","","WVc","WVc","Avg","Avg","Avg","Tot","Avg","Tot","Smp","Smp","Smp","Avg","Avg","Avg","Avg","Smp","Smp","Smp","Smp"
"2016-12-17 00:00:00",266605,0,0,-6.844,76.46,0,0,864.2141,0,9.19,3.127,214,3.187,4.019,0.2200189,0,52.16,60.03,33.83,35.69
"2016-12-17 00:10:00",266606,0,0,-6.802,76.67,0,0,864.2626,0,9.51,3.124,217,3.189,4.016,0.212432,0,52.1,60.03,33.81,35.69
"2016-12-17 00:20:00",266607,0,0,-6.8,76.77,0,0,864.3616,0,9.46,3.124,210,3.188,4.025,0.1782912,0,52.1,60.03,33.81,35.69
"2016-12-17 00:30:00",266608,0,0,-6.841,79.2,0,0,864.642,0,9.39,3.126,216,3.189,4.031,0.08724888,0,52.1,60.03,33.81,35.69
"2016-12-17 00:40:00",266609,0,0,-6.742,77.6,0,0,864.5809,0,9.39,3.124,214,3.189,4.018,0.318648,0,52.1,60.03,33.81,35.69
"2016-12-17 00:50:00",266610,0,0,-6.479,77.05,0,0,864.6463,0,9.26,3.124,205,3.189,4.028,0.4476247,0,52.1,59.97,33.81,35.67
"2016-12-17 01:00:00",266611,0,0,-6.368,76.06,0,0,864.6463,0,8.84,3.128,221,3.189,4.048,0.2807137,0,52.05,59.97,33.8,35.67
"2016-12-17 01:10:00",266612,0,0,-6.422,75.72,0,0,864.5724,0,8.52,3.132,223,3.189,4.056,0.2162255,0,52.1,59.97,33.81,35.67
"2016-12-17 01:20:00",266613,0,0,-6.514,77.33,0,0,864.6295,0,9.44,3.122,242,3.189,4.086,0.1100094,0,52.1,59.97,33.81,35.67
"2016-12-17 01:30:00",266614,0,0,-6.307,75.11,0,0,864.6442,0,7.533,3.141,202,3.189,4.098,0.2276058,0,52.1,59.97,33.81,35.67
"2016-12-17 01:40:00",266615,0,0,-6.231,75.59,0,0,864.6378,0,7.012,3.145,209,3.188,4.096,0.2048452,0,52.1,59.97,33.81,35.67
"2016-12-17 01:50:00",266616,0,0,-6.016,75,0,0,864.6484,0,7.555,3.139,216,3.186,4.098,0.3565823,0,52.05,59.97,33.8,35.67
"2016-12-17 02:00:00",266617,0,0,-6.008,76.37,0,0,864.6631,0,6.937,3.145,202,3.183,4.098,0.2996809,0,52.1,59.97,33.81,35.67
"2016-12-17 02:10:00",266618,0,0,-5.901,76.42,0,0,864.6463,0,6.935,3.144,196,3.182,4.101,0.3148546,0,52.1,59.97,33.81,35.67
"2016-12-17 02:20:00",266619,0,0,-5.733,75.37,0,0,864.6926,0,7.282,3.141,210,3.173,4.107,0.3831363,0,52.1,59.97,33.81,35.67
"2016-12-17 02:30:00",266620,0,0,-5.682,77.37,0,0,864.7053,0,9.33,3.118,227,3.168,4.106,0.3300284,0,52.1,59.97,33.81,35.67
"2016-12-17 02:40:00",266621,0,0,-5.418,75.13,0,0,864.7011,0,9.98,3.111,270,3.152,4.167,0.1782912,0,52.1,59.97,33.81,35.67
"2016-12-17 02:50:00",266622,0,0,-5.439,76.63,0,0,864.8086,0,9.04,3.122,222,3.157,4.149,0.0644883,0,52.1,59.97,33.81,35.67
"2016-12-17 03:00:00",266623,0,0,-5.689,79.13,0,0,864.8993,0,9.31,3.118,219,3.159,4.124,0.03414086,0,52.05,59.97,33.8,35.67
"2016-12-17 03:10:00",266624,0,0,-5.388,77.51,0,0,864.8993,0,9.41,3.117,252,3.182,4.114,0.2807137,0,52.05,59.97,33.8,35.67
"2016-12-17 03:20:00",266625,0,0,-5.393,76.52,0,0,864.9161,0,9.23,3.118,224,3.184,4.126,0,0,52.05,59.97,33.8,35.67
"2016-12-17 03:30:00",266626,0,0,-5.259,74.92,0,0,864.9689,0,8.96,3.121,205,3.177,4.128,0.06069487,0,52.05,59.97,33.8,35.67
"2016-12-17 03:40:00",266627,0,0,-5.681,77.81,0,0,864.8993,0,8.82,3.126,216,3.176,4.114,0,0,52.05,59.91,33.8,35.66
"2016-12-17 03:50:00",266628,0,0,-6.031,80.8,0,0,864.8972,0,8.97,3.126,208,3.192,4.103,0,0,52.1,59.91,33.81,35.66
"2016-12-17 04:00:00",266629,0,0,-5.5,78.5,0,0,864.8908,0,9.06,3.118,209,3.209,4.1,0.9180099,0,52.05,59.91,33.8,35.66
"2016-12-17 04:10:00",266630,0,0,-5.01,75.66,0,0,864.8993,0,9.09,3.12,215,3.201,4.103,0.9749114,0,52.05,59.91,33.8,35.66
"2016-12-17 04:20:00",266631,0,0,-5.645,82.3,0,0,864.8993,0,8.91,3.125,206,3.196,4.106,0.1100094,0,52.05,59.91,33.8,35.66
"2016-12-17 04:30:00",266632,0,0,-5.76,85,0,0,865.1102,0,9.66,3.115,317,3.185,4.131,0.1782912,0,52.05,59.91,33.8,35.66
"2016-12-17 04:40:00",266633,0,0,-5.802,84.7,0,0,865.3083,0,11.16,3.103,426,3.184,4.143,0.1251832,0,52.1,59.91,33.81,35.66
"2016-12-17 04:50:00",266634,0,0,-5.97,86.7,0,0,865.4369,0,9.11,3.123,195,3.193,4.116,0,0,52.05,59.91,33.8,35.66
"2016-12-17 05:00:00",266635,0,0,-5.976,87.6,0,0,865.4769,0,9.39,3.121,192,3.192,4.129,0.01138029,0,52.05,59.91,33.8,35.66
"2016-12-17 05:10:00",266636,0,0,-5.984,87.7,0,0,865.4918,0,9.41,3.12,193,3.185,4.144,0.1024212,0,52.1,59.91,33.81,35.66
"2016-12-17 05:20:00",266637,0,0,-5.877,86.2,0,0,865.6279,0,9.17,3.122,189,3.19,4.157,0.2351888,0,52.1,59.91,33.81,35.66
"2016-12-17 05:30:00",266638,0,0,-5.848,87.1,0,0,865.6459,0,9.63,3.116,221,3.187,4.139,0.2579456,0,52.05,59.91,33.8,35.66
"2016-12-17 05:40:00",266639,0,0,-5.54,85.1,0,0,865.6563,0,9.46,3.117,198,3.182,4.147,0.3793328,0,52.05,59.91,33.8,35.66
"2016-12-17 05:50:00",266640,0,0,-5.521,85,0,0,865.668,0,9.49,3.117,198,3.188,4.121,0.2427738,0,52.05,59.91,33.8,35.66
"2016-12-17 06:00:00",266641,0,0,-5.375,84.2,0,0,865.8535,0,9.26,3.118,207,3.196,4.136,0.348988,0,52.05,59.91,33.8,35.66
"2016-12-17 06:10:00",266642,0,0,-5.328,83.4,0,0,865.8358,0,9.22,3.118,203,3.184,4.132,0.2351817,0,52.05,59.85,33.8,35.64
"2016-12-17 06:20:00",266643,0,0,-5.232,83.5,0,0,865.8698,0,9.59,3.114,255,3.179,4.129,0.2275924,0,52.05,59.85,33.8,35.64
"2016-12-17 06:30:00",266644,0,0,-5.282,85.9,0,0,865.9772,0,9.24,3.118,285,3.191,4.128,0.2275937,0,51.99,59.85,33.79,35.64
"2016-12-17 06:40:00",266645,0,0,-5.233,84.9,0,0,866.2031,0,8.13,3.129,221,3.188,4.12,0.227587,0,52.05,59.85,33.8,35.64
"2016-12-17 06:50:00",266646,0,0,-5.253,86,0,0,866.3322,0,7.193,3.139,209,3.178,4.117,0.2882741,0,52.05,59.85,33.8,35.64
"2016-12-17 07:00:00",266647,0,0,-5.36,87.8,0,0,866.3292,0,7.613,3.135,195,3.184,4.119,0.6713797,0,52.05,59.85,33.8,35.64
"2016-12-17 07:10:00",266648,0,0,-5.314,86.8,0,0,866.3456,0,8.98,3.121,186,3.17,4.11,1.475462,0,51.99,59.85,33.79,35.64
"2016-12-17 07:20:00",266649,0,0,-5.466,89.1,0.3972994,0,866.282,0,9.48,3.116,208,3.163,4.098,2.268094,5.525,52.05,59.85,33.8,35.64
"2016-12-17 07:30:00",266650,0,0,-5.173,87.1,0.4287644,0,866.4044,0,9.88,3.11,242,3.154,4.095,4.23271,10.11,52.05,59.85,33.8,35.64
"2016-12-17 07:40:00",266651,0,0,-5.025,86.5,0.9990808,0,866.543,0,9.67,3.112,207,3.13,4.079,6.56867,6.773,52.05,59.85,33.8,35.64
"2016-12-17 07:50:00",266652,0,0,-5.142,88.3,1.773919,0,866.5809,0,10.04,3.109,190,3.123,4.074,8.22583,4.735,52.05,59.85,33.8,35.64
"2016-12-17 08:00:00",266653,0,0,-5.063,89.1,2.092481,0,866.5872,0,9.7,3.112,198,3.123,4.066,9.1662,4.421,52.05,59.85,33.8,35.64
"2016-12-17 08:10:00",266654,0,0,-5.002,90.2,2.591982,0,866.5789,0,10.09,3.107,192,3.121,4.065,10.83098,4.185,52.05,59.85,33.8,35.64
"2016-12-17 08:20:00",266655,0,0,-4.844,90.2,3.795756,0,866.7179,0,9.96,3.108,185,3.135,4.078,15.79226,4.169,52.05,59.85,33.8,35.64
"2016-12-17 08:30:00",266656,0,0,-4.838,91.4,5.105754,0,866.8697,0,10.33,3.104,177,3.164,4.072,20.30989,3.968,52.05,59.85,33.8,35.64
"2016-12-17 08:40:00",266657,0,0,-4.714,92.3,6.265792,0,867.072,0,10.34,3.103,190,3.148,4.071,24.96208,3.978,51.99,59.79,33.79,35.63
"2016-12-17 08:50:00",266658,0,0,-4.585,92.4,8.920314,0,867.0847,0,9.6,3.11,201,3.122,4.098,35.87113,4.021,51.99,59.79,33.79,35.63
"2016-12-17 09:00:00",266659,0,0,-4.58,92.6,7.299688,0,867.1563,0,10.35,3.103,199,3.156,4.083,28.70302,3.933,51.99,59.79,33.79,35.63
"2016-12-17 09:10:00",266660,0,0,-4.488,92.9,6.532691,0,867.3185,0,10.05,3.105,191,3.177,4.073,25.57804,3.916,52.05,59.85,33.8,35.64
"2016-12-17 09:20:00",266661,0,0,-4.297,92.5,9.8875,0,867.3376,0,10.1,3.102,208,3.205,4.06,39.62024,4.002,52.05,59.79,33.8,35.63
"2016-12-17 09:30:00",266662,0,0,-4.071,91.2,7.594571,0,867.504,0,10.35,3.099,200,3.223,4.053,30.86039,4.06,51.99,59.79,33.79,35.63
"2016-12-17 09:40:00",266663,0,0,-4.07,90.7,6.434343,0,867.5841,0,10.5,3.099,201,3.223,4.053,24.97499,3.896,51.99,59.79,33.79,35.63
"2016-12-17 09:50:00",266664,0,0,-4.141,91.9,7.397921,0,867.5905,0,10.5,3.098,194,3.224,4.053,27.7698,3.722,51.99,59.79,33.79,35.63
"2016-12-17 10:00:00",266665,0,0,-4.115,92.7,7.838415,0,867.8286,0,10.7,3.096,198,3.228,4.053,29.23356,3.731,51.99,59.79,33.79,35.63
"2016-12-17 10:10:00",266666,0,0,-4.184,94.1,6.94563,0,868.0352,0,10.9,3.095,196,3.219,4.053,25.55898,3.677,51.99,59.79,33.79,35.63
"2016-12-17 10:20:00",266667,0,0,-4.099,94.2,15.09082,0,868.0372,0,11,3.092,190,3.213,4.053,58.6226,3.873,51.99,59.79,33.79,35.63
"2016-12-17 10:30:00",266668,0,0,-3.807,93.2,12.24334,0,868.0204,0,11.04,3.092,190,3.192,4.053,46.80631,3.835,51.99,59.79,33.79,35.63
"2016-12-17 10:40:00",266669,0,0,-3.758,92.3,14.81944,0,868.0878,0,10.65,3.096,189,3.19,4.053,56.77583,3.833,51.99,59.79,33.79,35.63
"2016-12-17 10:50:00",266670,0,0,-3.88,91.6,18.70522,0,867.9888,0,10.85,3.092,189,3.186,4.053,69.8018,3.726,51.99,59.79,33.79,35.63
"2016-12-17 11:00:00",266671,0,0,-3.554,90,17.20282,0,868.0731,0,10.75,3.092,189,3.187,4.05,65.28538,3.79,51.94,59.79,33.77,35.63
"2016-12-17 11:10:00",266672,0,0,-3.283,87.8,24.05406,0,868.0289,0,10.7,3.09,181,3.187,4.002,94.5872,3.929,51.99,59.73,33.79,35.62
"2016-12-17 11:20:00",266673,0,0,-2.919,86.3,20.86835,0,868.0942,0,10.75,3.089,173,3.182,3.983,82.52821,3.952,51.99,59.73,33.79,35.62
"2016-12-17 11:30:00",266674,0,0,-2.668,83.8,30.00465,0,868.0457,0,10.66,3.088,177,3.149,4.037,118.3373,3.941,51.99,59.73,33.79,35.62
"2016-12-17 11:40:00",266675,0,0,-2.328,83.7,30.82659,0,867.9529,0,10.64,3.087,177,3.175,4.056,119.6606,3.864,51.99,59.79,33.79,35.63
"2016-12-17 11:50:00",266676,0,0,-2.23,83.9,24.52947,0,867.846,0,10.69,3.085,177,3.169,4.071,92.79546,3.774,51.99,59.73,33.79,35.62
"2016-12-17 12:00:00",266677,0,0,-1.965,83.6,25.77055,0,867.8044,0,9.83,3.093,194,3.165,4.103,97.08168,3.764,51.94,59.73,33.77,35.62
"2016-12-17 12:10:00",266678,0,0,-2.15,85.7,27.71496,0,867.7667,0,10.89,3.083,189,3.145,4.096,104.7439,3.776,51.99,59.73,33.79,35.62
"2016-12-17 12:20:00",266679,0,0,-2.319,88.5,19.52615,0,867.7424,0,11.12,3.083,179,3.122,4.07,67.06573,3.416,51.99,59.73,33.79,35.62
"2016-12-17 12:30:00",266680,0,0,-2.672,92.3,18.97856,0,867.7332,0,10.65,3.089,200,3.107,4.057,66.41376,3.49,51.99,59.79,33.79,35.63
"2016-12-17 12:40:00",266681,0,0,-2.659,91.7,17.78293,0,867.7515,0.5,10.36,3.091,199,3.1,4.052,62.76554,3.529,51.94,59.73,33.77,35.62
"2016-12-17 12:50:00",266682,0,0,-2.612,94.1,13.82365,0,867.8461,0,10.71,3.088,206,3.099,4.05,48.41294,3.503,51.99,59.73,33.79,35.62
"2016-12-17 13:00:00",266683,0,0,-2.553,93.7,23.90432,0,868.0041,0,11.26,3.081,235,3.099,4.05,91.43887,3.803,51.94,59.73,33.77,35.62
"2016-12-17 13:10:00",266684,0,0,-2.102,90.4,20.29507,0,868.0041,0,11.36,3.078,195,3.099,4.049,79.33847,3.909,51.99,59.73,33.79,35.62
"2016-12-17 13:20:00",266685,0,0,-2.248,88.2,18.70669,0,868.0041,0,11.26,3.081,191,3.099,4.049,69.52398,3.715,51.99,59.73,33.79,35.62
"2016-12-17 13:30:00",266686,0,0,-2.402,87.5,19.96088,0,868.0526,0,10.16,3.092,192,3.099,4.049,73.59913,3.685,51.94,59.73,33.77,35.62
"2016-12-17 13:40:00",266687,0,0,-2.359,87,21.82054,0,868.0989,0,10.46,3.088,196,3.099,4.049,82.55309,3.776,51.94,59.73,33.77,35.62
"2016-12-17 13:50:00",266688,0,0,-2.054,86.2,31.15423,0,868.1158,0,10.37,3.086,196,3.103,4.049,118.115,3.799,51.94,59.73,33.77,35.62
"2016-12-17 14:00:00",266689,0,0,-1.652,82.8,38.05031,0,868.2527,0,10.47,3.085,196,3.149,4.016,136.5422,3.587,51.99,59.79,33.79,35.63
"2016-12-17 14:10:00",266690,0,0,-1.642,81.1,27.52534,0,868.2822,0,10.47,3.084,195,3.173,4.012,101.9811,3.7,51.94,59.67,33.77,35.6
"2016-12-17 14:20:00",266691,0,0,-1.56,79.52,27.71799,0,868.4402,0,10.47,3.084,195,3.178,4.036,101.4315,3.658,51.99,59.73,33.79,35.62
"2016-12-17 14:30:00",266692,0,0,-1.561,79.28,23.73131,0,868.5162,0,10.42,3.085,196,3.169,4.043,82.1778,3.394,51.94,59.67,33.77,35.6
"2016-12-17 14:40:00",266693,0,0,-1.568,79.92,17.74737,0,868.7332,0,10.39,3.085,197,3.134,4.047,68.8568,3.896,51.94,59.67,33.77,35.6
"2016-12-17 14:50:00",266694,0,0,-1.639,81.5,8.960183,0,868.868,0,10.32,3.086,196,3.134,4.049,35.03114,3.921,51.94,59.67,33.77,35.6
"2016-12-17 15:00:00",266695,0,0,-1.79,83.6,5.783426,0,869.0007,0,10.34,3.087,197,3.116,4.049,21.54333,3.715,51.88,59.67,33.76,35.6
"2016-12-17 15:10:00",266696,0,0,-1.995,84.5,5.527871,0,869.0892,0,10.66,3.085,193,3.099,4.049,19.58347,3.537,51.94,59.67,33.77,35.6
"2016-12-17 15:20:00",266697,0,0,-2.002,84.9,4.419151,0,869.3167,0,11.01,3.082,194,3.099,4.048,15.35669,3.473,51.94,59.67,33.77,35.6
"2016-12-17 15:30:00",266698,0,0,-2.251,89.9,4.033852,0,869.4979,0,11.36,3.08,189,3.096,4.048,12.96846,3.214,51.94,59.67,33.77,35.6
"2016-12-17 15:40:00",266699,0,0,-2.258,91.5,5.64582,0,869.5211,0,11.26,3.08,186,3.083,4.034,21.34242,3.763,51.94,59.73,33.77,35.62
"2016-12-17 15:50:00",266700,0,0,-2.221,91.1,3.420517,0,869.5801,0,10.66,3.086,192,3.093,3.989,12.97604,3.799,51.94,59.67,33.77,35.6
"2016-12-17 16:00:00",266701,0,0,-2.267,91.1,2.197781,0,869.7782,0,11.16,3.081,274,3.075,3.984,8.082067,3.681,51.94,59.73,33.77,35.62
"2016-12-17 16:10:00",266702,0,0,-2.273,91.7,1.647353,0,869.9594,0,10.06,3.092,234,3.068,3.964,5.993316,3.642,51.94,59.73,33.77,35.62
"2016-12-17 16:20:00",266703,0,0,-2.313,91.8,0.9593175,0,870.1238,0,10.34,3.09,208,3.073,3.925,3.764303,3.928,51.94,59.73,33.77,35.62
"2016-12-17 16:30:00",266704,0,0,-2.283,90.9,1.269916,0,870.2565,0.5,10.71,3.086,219,3.076,3.902,6.459589,5.017,51.94,59.73,33.77,35.62
"2016-12-17 16:40:00",266705,0,0,-2.215,90.2,0.7234202,0,870.2796,0,10.96,3.083,221,3.074,3.931,3.817376,5.21,51.94,59.67,33.77,35.6
"2016-12-17 16:50:00",266706,0,0,-2.258,91,0.07077028,0,870.2796,0,11,3.082,222,3.095,3.906,0.6027596,1.205,51.94,59.67,33.77,35.6
"2016-12-17 17:00:00",266707,0,0,-2.268,90.3,0,0,870.3341,0,10.9,3.084,204,3.114,3.911,0.2047186,0,51.94,59.73,33.77,35.62
"2016-12-17 17:10:00",266708,0,0,-2.258,91.4,0,0,870.5336,0,11.11,3.082,207,3.128,3.935,0,0,51.94,59.67,33.77,35.6
"2016-12-17 17:20:00",266709,0,0,-2.239,91.7,0,0,870.6133,0,11.43,3.078,201,3.14,3.951,0.08720447,0,51.88,59.73,33.76,35.62
"2016-12-17 17:30:00",266710,0,0,-2.208,91.4,0,0,870.9109,0,11.42,3.078,206,3.157,3.984,0.01895806,0,51.88,59.67,33.76,35.6
"2016-12-17 17:40:00",266711,0,0,-2.208,91.8,0,0,871.2269,0,11.42,3.079,211,3.165,4.004,0,0,51.94,59.67,33.77,35.6
"2016-12-17 17:50:00",266712,0,0,-2.181,91.2,0,0,871.3412,0,11.34,3.079,200,3.175,4.027,0.003791988,0,51.88,59.67,33.76,35.6
"2016-12-17 18:00:00",266713,0,0,-2.233,88.8,0.01179878,0,871.3581,0,11.41,3.079,210,3.183,4.045,0,0,51.94,59.67,33.77,35.6
"2016-12-17 18:10:00",266714,0,0,-2.368,89.8,0,0,871.3787,0,11.4,3.08,201,3.186,4.051,0,0,51.88,59.67,33.76,35.6
"2016-12-17 18:20:00",266715,0,0,-2.371,89.5,0,0,871.4944,0,11.3,3.081,211,3.187,4.052,0.03033702,0,51.94,59.67,33.77,35.6
"2016-12-17 18:30:00",266716,0,0,-2.348,88,0,0,871.4677,0,11.23,3.081,202,3.187,4.052,0.1365167,0,51.94,59.67,33.77,35.6
"2016-12-17 18:40:00",266717,0,0,-2.277,85.9,0,0,871.5663,0,11.16,3.081,201,3.187,4.053,0.1668537,0,51.88,59.61,33.76,35.59
"2016-12-17 18:50:00",266718,0,0,-2.258,84.3,0,0,871.6305,0,11.36,3.079,216,3.187,4.053,0.007584261,0,51.88,59.67,33.76,35.6
"2016-12-17 19:00:00",266719,0,0,-2.302,84.1,0,0,871.6391,0,11.43,3.079,211,3.187,4.053,0,0,51.88,59.67,33.76,35.6
"2016-12-17 19:10:00",266720,0,0,-2.185,82.8,0,0,871.6328,0,10.98,3.083,200,3.187,4.053,0.07205047,0,51.88,59.67,33.76,35.6
"2016-12-17 19:20:00",266721,0,0,-2.185,82.8,0,0,871.6244,0,11.06,3.081,196,3.187,4.053,0.1630616,0,51.88,59.67,33.76,35.6
"2016-12-17 19:30:00",266722,0,0,-2.026,81.6,0,0,871.6624,0,11.01,3.081,201,3.187,4.053,0.1820223,0,51.88,59.67,33.76,35.6
"2016-12-17 19:40:00",266723,0,0,-1.888,80.3,0,0,871.8878,0,11.19,3.078,200,3.187,4.053,0.3033704,0,51.88,59.67,33.76,35.6
"2016-12-17 19:50:00",266724,0,0,-1.882,80.9,0,0,871.892,0,11.16,3.079,200,3.187,4.053,0.2502806,0,51.88,59.67,33.76,35.6
"2016-12-17 20:00:00",266725,0,0,-1.865,81.1,0,0,871.9996,0,11.06,3.08,196,3.187,4.053,0.2313199,0,51.88,59.67,33.76,35.6
"2016-12-17 20:10:00",266726,0,0,-1.843,81.9,0,0,872.145,0,11.04,3.08,196,3.187,4.053,0.1782301,0,51.88,59.61,33.76,35.59
"2016-12-17 20:20:00",266727,0,0,-1.775,82,0,0,872.1428,0,10.99,3.08,196,3.187,4.053,0.2123593,0,51.88,59.61,33.76,35.59
"2016-12-17 20:30:00",266728,0,0,-1.791,82.9,0,0,872.1513,0,11.11,3.079,197,3.186,4.05,0.1668537,0,51.88,59.67,33.76,35.6
"2016-12-17 20:40:00",266729,0,0,-1.786,83.4,0,0,872.2735,0,10.97,3.08,201,3.185,4.052,0.087219,0,51.82,59.61,33.75,35.59
"2016-12-17 20:50:00",266730,0,0,-1.724,82.5,0,0,872.3958,0,11.16,3.078,206,3.185,4.053,0.1213482,0,51.88,59.61,33.76,35.59
"2016-12-17 21:00:00",266731,0,0,-1.795,83.3,0,0,872.4569,0,10.96,3.081,202,3.186,4.053,0.07963474,0,51.88,59.61,33.76,35.59
"2016-12-17 21:10:00",266732,0,0,-1.804,83.7,0,0,872.6486,0,11.12,3.078,197,3.187,4.053,0.09480325,0,51.88,59.61,33.76,35.59
"2016-12-17 21:20:00",266733,0,0,-1.646,82.3,0,0,872.832,0,11.12,3.078,198,3.186,4.045,0.2426963,0,51.82,59.61,33.75,35.59
"2016-12-17 21:30:00",266734,0,0,-1.537,81.4,0,0,872.9121,0,10.69,3.082,202,3.177,4.045,0.2389042,0,51.88,59.61,33.76,35.59
"2016-12-17 21:40:00",266735,0,0,-1.527,81.1,0,0,872.9796,0,10.97,3.078,201,3.173,4.047,0.2540727,0,51.88,59.61,33.76,35.59
"2016-12-17 21:50:00",266736,0,0,-1.448,81.1,0,0,873.1292,0,10.97,3.078,201,3.165,4.042,0.2161514,0,51.88,59.61,33.76,35.59
"2016-12-17 22:00:00",266737,0,0,-1.456,80.6,0,0,873.1545,0,10.92,3.079,200,3.155,4.033,0.2199436,0,51.82,59.61,33.75,35.59
"2016-12-17 22:10:00",266738,0,0,-1.621,83,0,0,873.3294,0,11.16,3.078,199,3.156,4.031,0.0758426,0,51.88,59.61,33.76,35.59
"2016-12-17 22:20:00",266739,0,0,-1.687,83.4,0,0,873.4074,0,10.92,3.08,200,3.157,4.035,0.1061796,0,51.88,59.61,33.76,35.59
"2016-12-17 22:30:00",266740,0,0,-1.743,84.1,0,0,873.4833,0,10.92,3.08,197,3.157,4.04,0.087219,0,51.82,59.61,33.75,35.59
"2016-12-17 22:40:00",266741,0,0,-1.613,81.8,0,0,873.6603,0,10.89,3.08,196,3.165,4.045,0.2275278,0,51.88,59.61,33.76,35.59
"2016-12-17 22:50:00",266742,0,0,-1.485,79.73,0,0,873.6603,0,10.94,3.079,196,3.157,4.025,0.2275278,0,51.82,59.61,33.75,35.59
"2016-12-17 23:00:00",266743,0,0,-1.564,81.4,0,0,873.6603,0,10.82,3.081,201,3.15,4.026,0.07205047,0,51.88,59.61,33.76,35.59
"2016-12-17 23:10:00",266744,0,0,-1.617,81.6,0,0,873.6603,0,11.02,3.078,200,3.159,4.039,0.05308982,0,51.82,59.61,33.75,35.59
"2016-12-17 23:20:00",266745,0,0,-1.397,77.7,0,0,873.5929,0,10.82,3.079,201,3.154,4.031,0.3261232,0,51.82,59.61,33.75,35.59
"2016-12-17 23:30:00",266746,0,0,-1.448,78.29,0,0,873.4918,0,10.72,3.082,199,3.16,4.031,0.1403088,0,51.82,59.61,33.75,35.59
"2016-12-17 23:40:00",266747,0,0,-1.723,80.7,0,0,873.4117,0,10.82,3.081,201,3.153,4.035,0.02654491,0,51.82,59.61,33.75,35.59
"2016-12-17 23:50:00",266748,0,0,-1.371,76.16,0,0,873.4643,0,10.37,3.084,199,3.162,4.038,0.3223311,0,51.82,59.56,33.75,35.58
